FW6296 Weather Reports


time (UTC)temp
C
wind
direction
speed
KPH
gust
KPH
rain 1hr
cm
rain 24hr
cm
rain mn
cm
humidity
%
barometer
mb
20260906112517 20 115 0.0 4.8 0.00 0.00 0.00 94 1017.7
20260906111517 20 0.0 0.0 0.00 0.00 0.00 93 1017.6
20260906110517 20 0.0 0.0 0.00 0.00 0.00 93 1017.4
20260906105517 20 121 0.0 3.2 0.00 0.00 0.00 92 1017.3
20260906104516 20 125 3.2 6.4 0.00 0.00 0.00 91 1017.2
20260906103516 20 122 0.0 6.4 0.00 0.00 0.00 92 1017.3
20260906102516 20 118 0.0 3.2 0.00 0.00 0.00 92 1017.2
20260906101517 20 122 0.0 3.2 0.00 0.00 0.00 92 1017.1
20260906100517 20 120 0.0 1.6 0.00 0.00 0.00 91 1016.9
20260906095517 21 121 1.6 6.4 0.00 0.00 0.00 90 1016.9
20260906094537 21 125 1.6 6.4 0.00 0.00 0.00 90 1017.0
20260906093516 21 116 1.6 4.8 0.00 0.00 0.00 91 1016.9
20260906092515 21 118 1.6 6.4 0.00 0.00 0.00 91 1016.8
20260906091516 21 116 1.6 6.4 0.00 0.00 0.00 90 1016.7
20260906090517 21 126 3.2 8.0 0.00 0.00 0.00 89 1016.8
20260906085516 21 126 3.2 4.8 0.00 0.00 0.00 88 1016.7
20260906084516 21 122 1.6 6.4 0.00 0.00 0.00 89 1016.6
20260906083517 21 117 1.6 8.0 0.00 0.00 0.00 89 1016.6
20260906082517 22 110 3.2 6.4 0.00 0.00 0.00 87 1016.6
20260906081517 22 116 4.8 11.3 0.00 0.00 0.00 86 1016.7
20260906080518 22 116 4.8 8.0 0.00 0.00 0.00 84 1016.8
20260906075519 22 118 3.2 8.0 0.00 0.00 0.00 84 1017.0
20260906074518 22 121 3.2 9.7 0.00 0.00 0.00 83 1017.0
20260906073518 22 125 4.8 8.0 0.00 0.00 0.00 83 1017.1
20260906072519 22 114 3.2 8.0 0.00 0.00 0.00 84 1016.9
20260906071518 22 111 3.2 9.7 0.00 0.00 0.00 84 1016.9
20260906070535 22 107 3.2 9.7 0.00 0.00 0.00 84 1017.0
20260906065515 22 105 6.4 12.9 0.00 0.00 0.00 84 1017.1
20260906064516 22 112 6.4 11.3 0.00 0.00 0.00 83 1017.0
20260906063516 22 111 6.4 12.9 0.00 0.00 0.00 83 1017.1
20260906062516 22 106 4.8 11.3 0.00 0.00 0.00 84 1017.0
20260906061516 22 103 6.4 16.1 0.00 0.00 0.00 83 1017.0
20260906060516 22 104 4.8 12.9 0.00 0.00 0.00 83 1016.9
20260906055517 22 113 3.2 11.3 0.00 0.00 0.00 83 1016.8
20260906054517 22 106 6.4 14.5 0.00 0.00 0.00 83 1016.8
20260906053517 23 106 6.4 12.9 0.00 0.00 0.00 83 1016.7
20260906052517 23 111 4.8 8.0 0.00 0.00 0.00 82 1016.7
20260906051517 23 111 4.8 11.3 0.00 0.00 0.00 82 1016.8
20260906050537 23 105 8.0 14.5 0.00 0.00 0.00 82 1016.6
20260906045518 23 102 8.0 14.5 0.00 0.00 0.00 82 1016.3
20260906044518 23 111 6.4 14.5 0.00 0.00 0.00 82 1016.2
20260906043518 23 103 8.0 16.1 0.00 0.00 0.00 82 1016.1
20260906042518 23 104 9.7 16.1 0.00 0.00 0.00 83 1016.0
20260906041516 23 98 6.4 14.5 0.00 0.00 0.00 82 1016.0
20260906040515 23 101 6.4 14.5 0.00 0.00 0.00 82 1015.9
20260906035516 23 105 8.0 17.7 0.00 0.00 0.00 82 1015.9
20260906034556 23 106 6.4 14.5 0.00 0.00 0.00 82 1015.9
20260906033516 23 110 6.4 12.9 0.00 0.00 0.00 82 1015.8
20260906032556 23 113 4.8 11.3 0.00 0.00 0.00 82 1015.8
20260906031516 23 114 4.8 11.3 0.00 0.00 0.00 83 1015.9
20260906030516 23 109 4.8 9.7 0.00 0.00 0.00 83 1015.7
20260906025517 23 114 8.0 16.1 0.00 0.00 0.00 82 1015.8
20260906024537 23 111 4.8 11.3 0.00 0.00 0.00 82 1015.8
20260906023517 23 114 3.2 14.5 0.00 0.00 0.00 82 1015.8
20260906022517 23 109 6.4 16.1 0.00 0.00 0.00 81 1015.8
20260906021517 22 97 3.2 16.1 0.00 0.00 0.00 81 1015.9
20260906020518 22 113 4.8 11.3 0.00 0.00 0.00 81 1015.9
20260906015518 22 111 4.8 14.5 0.00 0.00 0.00 81 1015.9
20260906014518 22 98 3.2 12.9 0.00 0.00 0.00 81 1016.0
20260906013558 22 99 4.8 9.7 0.00 0.00 0.00 80 1015.9
20260906012518 23 90 3.2 11.3 0.00 0.00 0.00 79 1015.9
20260906011519 23 110 3.2 16.1 0.00 0.00 0.00 79 1015.9
20260906010516 23 105 6.4 14.5 0.00 0.00 0.00 78 1015.8
20260906005516 23 107 4.8 16.1 0.00 0.00 0.00 78 1015.6
20260906004516 23 99 4.8 14.5 0.00 0.00 0.00 78 1015.4
20260906003516 23 107 4.8 12.9 0.00 0.00 0.00 78 1015.1
20260906002536 24 106 6.4 16.1 0.00 0.00 0.00 78 1014.9
20260906001516 24 113 6.4 14.5 0.00 0.00 0.00 77 1014.9
20260906000537 25 78 4.8 12.9 0.00 0.00 0.00 75 1015.1
20260905235517 25 104 8.0 16.1 0.00 0.00 0.00 75 1015.0
20260905234517 25 90 4.8 12.9 0.00 0.00 0.00 74 1015.0
20260905233517 26 103 4.8 16.1 0.00 0.00 0.00 72 1015.0
20260905232517 26 109 6.4 14.5 0.00 0.00 0.00 70 1014.8
20260905231518 26 89 4.8 17.7 0.00 0.00 0.00 70 1014.6
20260905230518 27 97 6.4 14.5 0.00 0.00 0.00 68 1014.5
20260905225518 27 86 4.8 12.9 0.00 0.00 0.00 66 1014.4
20260905224518 27 97 6.4 14.5 0.00 0.00 0.00 67 1014.3
20260905223515 27 94 4.8 11.3 0.00 0.00 0.00 68 1014.3
20260905222515 27 71 4.8 11.3 0.00 0.00 0.00 67 1014.3
20260905221517 27 91 6.4 14.5 0.00 0.00 0.00 69 1014.6
20260905220536 27 93 6.4 14.5 0.00 0.00 0.00 68 1014.6
20260905215516 27 58 4.8 14.5 0.00 0.00 0.00 68 1014.6
20260905214516 27 81 4.8 11.3 0.00 0.00 0.00 68 1014.4
20260905213516 27 74 4.8 12.9 0.00 0.00 0.00 69 1014.3
20260905212517 28 53 6.4 16.1 0.00 0.00 0.00 66 1014.2
20260905211517 28 72 4.8 14.5 0.00 0.00 0.00 66 1014.3
20260905210517 28 93 8.0 14.5 0.00 0.00 0.00 67 1014.2
20260905205517 29 98 6.4 17.7 0.00 0.00 0.00 66 1014.2
20260905204517 28 9 4.8 11.3 0.00 0.00 0.00 65 1014.3
20260905203517 28 44 4.8 11.3 0.00 0.00 0.00 66 1014.4
20260905202518 29 85 4.8 14.5 0.00 0.00 0.00 66 1014.4
20260905201519 30 95 6.4 16.1 0.00 0.00 0.00 64 1014.3
20260905200538 30 81 4.8 20.9 0.00 0.00 0.00 64 1014.3
20260905195518 30 88 6.4 11.3 0.00 0.00 0.00 65 1014.2
20260905194518 30 95 6.4 17.7 0.00 0.00 0.00 66 1014.2
20260905193536 29 56 4.8 12.9 0.00 0.00 0.00 66 1014.3
20260905192515 30 89 6.4 16.1 0.00 0.00 0.00 65 1014.3
20260905191516 30 88 6.4 12.9 0.00 0.00 0.00 66 1014.4
20260905190516 30 60 4.8 12.9 0.00 0.00 0.00 65 1014.4
20260905185516 29 95 3.2 14.5 0.00 0.00 0.00 67 1014.5
20260905184516 29 89 6.4 17.7 0.00 0.00 0.00 67 1014.4
20260905183516 29 99 8.0 19.3 0.00 0.00 0.00 68 1014.4
20260905182537 30 90 6.4 16.1 0.00 0.00 0.00 65 1014.3
20260905181517 30 99 4.8 14.5 0.00 0.00 0.00 65 1014.4
20260905180517 30 93 6.4 14.5 0.00 0.00 0.00 64 1014.3
20260905175517 31 98 6.4 12.9 0.00 0.00 0.00 62 1014.3
20260905174517 30 44 4.8 12.9 0.00 0.00 0.00 62 1014.3
20260905173518 30 81 4.8 12.9 0.00 0.00 0.00 64 1014.3
20260905172518 30 47 4.8 11.3 0.00 0.00 0.00 63 1014.4
20260905171518 30 59 4.8 11.3 0.00 0.00 0.00 64 1014.5
20260905170518 30 91 4.8 14.5 0.00 0.00 0.00 65 1014.6
20260905165518 30 76 4.8 14.5 0.00 0.00 0.00 65 1014.6
20260905164515 30 90 4.8 14.5 0.00 0.00 0.00 65 1014.6
20260905163515 30 88 6.4 12.9 0.00 0.00 0.00 67 1014.6
20260905162516 30 95 6.4 12.9 0.00 0.00 0.00 67 1014.7
20260905161535 30 79 6.4 12.9 0.00 0.00 0.00 68 1014.7
20260905160516 30 80 3.2 11.3 0.00 0.00 0.00 69 1014.6
20260905155516 28 91 8.0 17.7 0.00 0.00 0.00 72 1014.6
20260905154516 28 91 9.7 17.7 0.00 0.00 0.00 73 1014.5
20260905153516 28 77 4.8 14.5 0.00 0.00 0.00 73 1014.4
20260905152516 28 57 4.8 11.3 0.00 0.00 0.00 74 1014.4
20260905151517 28 61 4.8 14.5 0.00 0.00 0.00 75 1014.3
20260905150538 28 97 6.4 14.5 0.00 0.00 0.00 75 1014.1
20260905145517 28 22 3.2 12.9 0.00 0.00 0.00 74 1014.2
20260905144517 28 44 3.2 9.7 0.00 0.00 0.00 76 1014.2
20260905143518 28 71 4.8 14.5 0.00 0.00 0.00 76 1014.1
20260905142518 27 103 3.2 12.9 0.00 0.00 0.00 78 1013.9
20260905141518 27 91 3.2 8.0 0.00 0.00 0.00 78 1013.8
20260905140518 27 93 4.8 11.3 0.00 0.00 0.00 79 1013.7
20260905135518 27 89 3.2 8.0 0.00 0.00 0.00 80 1013.8
20260905134516 27 98 4.8 12.9 0.00 0.00 0.00 81 1014.1
20260905133516 27 89 4.8 14.5 0.00 0.00 0.00 79 1014.2
20260905132516 27 94 8.0 12.9 0.00 0.00 0.00 81 1014.0
20260905131516 27 96 4.8 8.0 0.00 0.00 0.00 83 1013.8
20260905130516 27 93 4.8 11.3 0.00 0.00 0.00 84 1013.6
20260905125516 26 34 1.6 4.8 0.00 0.00 0.00 85 1013.6
20260905124517 26 335 0.0 4.8 0.00 0.00 0.00 87 1013.4
20260905123516 25 59 0.0 4.8 0.00 0.00 0.00 89 1013.2
20260905122557 25 59 0.0 3.2 0.00 0.00 0.00 89 1013.1
20260905121517 25 0.0 0.0 0.00 0.00 0.00 90 1013.0
20260905120517 25 0.0 0.0 0.00 0.00 0.00 91 1012.9
20260905115517 25 0.0 0.0 0.00 0.00 0.00 92 1012.9
20260905114537 25 0.0 0.0 0.00 0.00 0.00 90 1012.8
20260905113517 25 0.0 0.0 0.00 0.00 0.00 90 1012.7